{"data":{"norad_id":49165,"epoch":"2026-05-25T02:41:51.239040Z","epoch_age_seconds":75985,"freshness":"FRESH","line1":"1 49165U 21082AM  26145.11239860  .00000085  00000+0  14960-4 0  9992","line2":"2 49165  69.9992 101.7817 0003340 268.6294  91.4482 14.98332851258628","mean_motion":14.98332851,"eccentricity":0.000334,"inclination_deg":69.9992,"raan_deg":101.7817,"arg_perigee_deg":268.6294,"mean_anomaly_deg":91.4482,"bstar":1.496e-5,"rev_number":25862,"period_min":96.106816255075,"perigee_km":569.7257129952,"apogee_km":574.36843595695,"semimajor_km":6950.1840744761,"source":"CELESTRAK","updated_at":"2026-05-25T13:38:16.791382Z"}}